Uvalde, Texas, United States (78801)
Lat: 29.21N, Lon: 99.79W
Wx Zone: TXZ203
Local Info
Past Weather Observations for Today

NOTE: This archive is for the closest National Weather Service station to Uvalde. Information may differ from the station used for current weather conditions.

Click here for Long-term Archive

Time Weather Temperature Dewpoint Humidity Pressure Winds Precip Visibility
11:55
Clear
86°F / 30°C 70°F / 21°C 59% 30.04 in
(1017 mb)
SE 12.7 mph
(SE 20 kph)
- 10SM
11:35
Clear
86°F / 30°C 70°F / 21°C 59% 30.04 in
(1017 mb)
SE 13.8 mph
(SE 22 kph)
- 7SM
11:15
Clear
84°F / 29°C 70°F / 21°C 62% 30.04 in
(1017 mb)
SSE 15 mph
(SSE 24 kph)
- 10SM
10:55
Clear
84°F / 29°C 70°F / 21°C 62% 30.04 in
(1017 mb)
SE 15 mph
(SE 24 kph)
- 7SM
10:35
Clear
84°F / 29°C 70°F / 21°C 62% 30.04 in
(1017 mb)
SSE 16.1 mph
(SSE 26 kph)
- 10SM
10:15
Clear
82°F / 28°C 70°F / 21°C 66% 30.04 in
(1017 mb)
SSE 17.3 mph
(SSE 28 kph)
- 10SM
09:55
Clear
82°F / 28°C 70°F / 21°C 66% 30.04 in
(1017 mb)
SE 16.1 mph
(SE 26 kph)
- 7SM
09:35
Clear
81°F / 27°C 70°F / 21°C 70% 30.04 in
(1017 mb)
S 12.7 mph
(S 20 kph)
- 10SM
09:15
Clear
81°F / 27°C 72°F / 22°C 74% 30.04 in
(1017 mb)
SE 12.7 mph
(SE 20 kph)
- 7SM
08:55
Clear
79°F / 26°C 72°F / 22°C 79% 30.04 in
(1017 mb)
SSE 10.4 mph
(SSE 17 kph)
- 7SM
08:35
Clear
79°F / 26°C 72°F / 22°C 79% 30.04 in
(1017 mb)
SE 16.1 mph
(SE 26 kph)
- 7SM
08:15
Clear
79°F / 26°C 72°F / 22°C 79% 30.04 in
(1017 mb)
SE 15 mph
(SE 24 kph)
- 7SM
07:55
Partly Cloudy
77°F / 25°C 72°F / 22°C 83% 30.04 in
(1017 mb)
SSE 12.7 mph
(SSE 20 kph)
- 7SM
07:35
Partly Cloudy
75°F / 24°C 72°F / 22°C 89% 30.04 in
(1017 mb)
SE 11.5 mph
(SE 19 kph)
- 7SM
07:15
Mostly Cloudy
75°F / 24°C 72°F / 22°C 89% 30.04 in
(1017 mb)
SE 8.1 mph
(SE 13 kph)
- 7SM
06:55
Mostly Cloudy
Fog And Mist
73°F / 23°C 72°F / 22°C 94% 30.04 in
(1017 mb)
SE 8.1 mph
(SE 13 kph)
- 5SM
06:35
Mostly Cloudy
Fog And Mist
73°F / 23°C 72°F / 22°C 94% 30.04 in
(1017 mb)
SE 6.9 mph
(SE 11 kph)
- 5SM
06:15
Mostly Cloudy
Fog And Mist
73°F / 23°C 72°F / 22°C 94% 30.04 in
(1017 mb)
SE 8.1 mph
(SE 13 kph)
- 5SM
05:55
Mostly Cloudy
Fog And Mist
73°F / 23°C 72°F / 22°C 94% 30.01 in
(1016 mb)
SE 9.2 mph
(SE 15 kph)
- 5SM
05:35
Mostly Cloudy
73°F / 23°C 72°F / 22°C 94% 30.01 in
(1016 mb)
SE 9.2 mph
(SE 15 kph)
- 7SM
05:15
Mostly Cloudy
73°F / 23°C 72°F / 22°C 94% 30.01 in
(1016 mb)
SE 9.2 mph
(SE 15 kph)
- 7SM
04:55
Partly Cloudy
73°F / 23°C 72°F / 22°C 94% 30.01 in
(1016 mb)
SE 6.9 mph
(SE 11 kph)
- 7SM
04:35
Clear
75°F / 24°C 73°F / 23°C 94% 29.98 in
(1015 mb)
SE 6.9 mph
(SE 11 kph)
- 7SM
04:15
Clear
75°F / 24°C 73°F / 23°C 94% 29.98 in
(1015 mb)
SE 8.1 mph
(SE 13 kph)
- 7SM
03:55
Clear
75°F / 24°C 73°F / 23°C 94% 29.98 in
(1015 mb)
ESE 8.1 mph
(ESE 13 kph)
- 7SM
03:35
Clear
75°F / 24°C 73°F / 23°C 94% 29.98 in
(1015 mb)
SE 6.9 mph
(SE 11 kph)
- 7SM
03:15
Clear
75°F / 24°C 73°F / 23°C 94% 29.98 in
(1015 mb)
SE 6.9 mph
(SE 11 kph)
- 7SM
02:55
Clear
75°F / 24°C 73°F / 23°C 94% 29.98 in
(1015 mb)
ESE 5.8 mph
(ESE 9 kph)
- 7SM
02:35
Clear
77°F / 25°C 73°F / 23°C 89% 29.98 in
(1015 mb)
SE 6.9 mph
(SE 11 kph)
- 7SM
02:15
Clear
77°F / 25°C 73°F / 23°C 89% 29.98 in
(1015 mb)
SE 8.1 mph
(SE 13 kph)
- 7SM
01:55
Clear
77°F / 25°C 73°F / 23°C 89% 29.98 in
(1015 mb)
SE 9.2 mph
(SE 15 kph)
- 10SM
01:35
Clear
77°F / 25°C 75°F / 24°C 94% 30.01 in
(1016 mb)
SE 8.1 mph
(SE 13 kph)
- 7SM
01:15
Clear
79°F / 26°C 73°F / 23°C 84% 30.01 in
(1016 mb)
SE 6.9 mph
(SE 11 kph)
- 10SM
00:55
Clear
79°F / 26°C 75°F / 24°C 89% 30.01 in
(1016 mb)
SE 10.4 mph
(SE 17 kph)
- 10SM
00:35
Clear
79°F / 26°C 75°F / 24°C 89% 30.01 in
(1016 mb)
SE 10.4 mph
(SE 17 kph)
- 10SM
00:15
Clear
79°F / 26°C 75°F / 24°C 89% 30.01 in
(1016 mb)
SE 9.2 mph
(SE 15 kph)
- 10SM
Time Weather Temperature Dewpoint Humidity Pressure Winds Precip Visibility


Weather for websites

WeatherForYou.com, LLC is not responsible for any damages or problems caused by this service. Current weather conditions are obtained from the closest station including government and personal stations which may have varying degrees of accuracy. Weather forecasts are derived from the NOAA NDFD. Like all things, this site belongs to Jesus Christ... He just trusts us to maintain it. If you have any questions or comments email webmaster@weatherforyou.com

Copyright © 2015, WeatherForYou.com LLC. All rights reserved.